Regional Weather Roundup
Issued by NWS

Home | Current Version | Previous Version | Text Only | Print | Product List | Glossary Off
Versions: 1 2 3 4 5 6 7 8 9 10 11 12 13 14 15 16 17 18 19 20 21 22 23 24 25 26 27 28 29 30 31 32 33 34 35 36 37 38 39 40 41 42 43 44 45 46 47 48 49 50

000
ASUS43 KDMX 050207
RWRIA

WEATHER ROUNDUP FOR IOWA
NATIONAL WEATHER SERVICE DES MOINES IA
900 PM CDT TUE AUG 04 2015

NOTE: "FAIR" INDICATES FEW OR NO CLOUDS BELOW 12,000 FEET WITH NO
SIGNIFICANT WEATHER AND/OR OBSTRUCTIONS TO VISIBILITY.

* - THESE STATIONS ARE NOT NWS STATIONS...THUS NOT UNDER NWS
QUALITY CONTROL.  THEY ALSO DO NOT REPORT WEATHER SUCH
AS PRECIPITATION OR FOG.

IAZ001>003-012>014-020>022-031>034-043>046-050300-
   NORTHWEST IOWA

CITY           SKY/WX    TMP DP  RH WIND       PRES   REMARKS
CARROLL *      CLOUDY    70  66  88 E5        30.00S
CHEROKEE *     PTCLDY    70  66  88 E7        30.00S
DENISON *      CLOUDY    72  64  78 E6        29.97S
LE MARS *      CLEAR     73  66  78 E7        29.99S
ORANGE CITY *  CLEAR     70  63  78 E6        30.00S
SHELDON *      CLEAR     70  63  78 E8        30.00S
SIOUX CITY     CLOUDY    74  63  68 E8        29.96S
SPENCER        PTCLDY    69  60  73 E7        30.02S
STORM LAKE *   MOCLDY    68  64  88 E5        30.02S
$$

IAZ055>058-069>071-079>083-090>094-050300-
   SOUTHWEST IOWA

CITY           SKY/WX    TMP DP  RH WIND       PRES   REMARKS
ATLANTIC *     CLOUDY    72  64  78 CALM      29.99S
AUDUBON *      MOCLDY    70  64  83 CALM      30.01R
CLARINDA *     PTCLDY    72  70  94 CALM      30.00R
COUNCIL BLFS * CLOUDY    72  68  88 E8        29.97F
CRESTON *      PTCLDY    68  64  88 E7        30.01F
HARLAN  *      MOCLDY    70  68  94 CALM      30.02R
LAMONI         CLOUDY    73  68  84 E6        30.00S
RED OAK *      MOCLDY    72  66  83 SE5G13    29.98S
SHENANDOAH *     N/A     72  70  94 E6G14     29.98R
$$

IAZ047>049-059>061-072>074-084-050300-
   CENTRAL IOWA

CITY           SKY/WX    TMP DP  RH WIND       PRES   REMARKS
AMES           CLEAR     68  64  87 SE3       30.01R
ANKENY *       MOCLDY    68  66  94 NE3       30.00S
CHARITON *     CLOUDY    72  66  83 CALM      30.01R
DES MOINES     CLOUDY    75  62  64 SE7       30.00R
GRINNELL*      PTCLDY    70  64  83 CALM      30.03S
KNOXVILLE *    CLOUDY    72  64  78 E3        30.00S
MARSHALLTOWN   MOCLDY    70  65  84 NE6       30.01S
PELLA *        PTCLDY    70  66  88 CALM      30.02S
PERRY *        MOCLDY    70  66  88 E3        30.01S
$$

IAZ004>006-015-016-023>025-035-036-050300-
   NORTH CENTRAL IOWA

CITY           SKY/WX    TMP DP  RH WIND       PRES   REMARKS
ALGONA *       CLEAR     70  57  64 E3        30.04S
CLARION *      PTCLDY    64  61  88 E6        30.03S
ESTHERVILLE    PTCLDY    63  59  87 SE6       30.03S
FORT DODGE *   PTCLDY    70  61  73 E8        30.03R
MASON CITY     MOCLDY    67  58  72 S3        30.06R
FOREST CITY *  CLEAR     61  57  88 CALM      30.04S
IOWA FALLS *     N/A     70  59  68 NE3       30.04S
$$

IAZ007>011-017>019-026>030-037>042-050>054-066-050300-
   NORTHEAST IOWA

CITY           SKY/WX    TMP DP  RH WIND       PRES   REMARKS
CEDAR RAPIDS   PTCLDY    72  64  76 NW3       30.01S
CHARLES CITY * CLEAR     64  63  94 SW5       30.05R
CLINTON *      PTCLDY    70  61  73 CALM      30.04R
DECORAH *      CLEAR     66  59  77 CALM      30.03R
DUBUQUE        MOCLDY    66  55  67 CALM      30.04R
MONTICELLO *   CLEAR     66  61  82 CALM      30.03R
OELWEIN *      CLEAR     64  61  88 CALM      30.04S
WATERLOO       PTCLDY    66  59  78 CALM      30.02R
$$

IAZ064-065-067-068-078-050300-
   EAST CENTRAL IOWA

CITY           SKY/WX    TMP DP  RH WIND       PRES   REMARKS
DAVENPORT      PTCLDY    69  65  86 W5        30.03R
IOWA CITY      PTCLDY    72  65  78 CALM      30.03R
MT. PLEASANT * MOCLDY    72  63  73 CALM      30.01F
MUSCATINE *    CLEAR     72  64  78 CALM      30.02S
QUAD CITIES    MOCLDY    72  63  73 CALM      30.01R
$$

IAZ062-063-075>077-085>089-095>099-050300-
   SOUTHEAST IOWA

CITY           SKY/WX    TMP DP  RH WIND       PRES   REMARKS
BURLINGTON     MOCLDY    70  66  87 N3        30.01S
FAIRFIELD *    PTCLDY    68  64  88 CALM      30.02S
FORT MADISON * CLEAR     70  66  88 CALM      30.02S
KEOKUK *       CLEAR     72  68  88 CALM      30.00S
OSKALOOSA *      N/A     66  64  94 CALM      30.02S
CENTERVILLE *  PTCLDY    68  66  94 CALM      30.03R
OTTUMWA        PTCLDY    71  63  75 E5        29.99F
WASHINGTON *   CLEAR     68  66  94 CALM      30.03F
$$

ABBREVIATIONS USED IN REMARKS
   TC - TEMPERATURES IN CELSIUS
  WCI - WIND CHILL INDEX
   HX - HEAT INDEX
  VSB - VISIBILITY
$$



USA.gov is the U.S. government's official web portal to all federal, state and local government web resources and services.